Index of /20260413/WXO-DD/model_gdps/15km/12/114
Name Last modified Size Description
Parent Directory -
20260413T12Z_MSC_GDPS_AbsoluteVorticity_IsbL-0200_LatLon0.15_PT114H.grib2 2026-04-13 16:47 1.2M
20260413T12Z_MSC_GDPS_AbsoluteVorticity_IsbL-0250_LatLon0.15_PT114H.grib2 2026-04-13 16:47 1.3M
20260413T12Z_MSC_GDPS_AbsoluteVorticity_IsbL-0500_LatLon0.15_PT114H.grib2 2026-04-13 16:47 1.4M
20260413T12Z_MSC_GDPS_AbsoluteVorticity_IsbL-0700_LatLon0.15_PT114H.grib2 2026-04-13 16:47 1.3M
20260413T12Z_MSC_GDPS_AbsoluteVorticity_IsbL-0850_LatLon0.15_PT114H.grib2 2026-04-13 16:47 1.6M
20260413T12Z_MSC_GDPS_AirTemp-Max_AGL-2m_LatLon0.15_PT114H.grib2 2026-04-13 16:47 748K
20260413T12Z_MSC_GDPS_AirTemp-Min_AGL-2m_LatLon0.15_PT114H.grib2 2026-04-13 16:47 910K
20260413T12Z_MSC_GDPS_AirTemp_AGL-120m_LatLon0.15_PT114H.grib2 2026-04-13 16:47 907K
20260413T12Z_MSC_GDPS_AirTemp_AGL-2m_LatLon0.15_PT114H.grib2 2026-04-13 16:47 1.0M
20260413T12Z_MSC_GDPS_AirTemp_AGL-40m_LatLon0.15_PT114H.grib2 2026-04-13 16:47 926K
20260413T12Z_MSC_GDPS_AirTemp_AGL-80m_LatLon0.15_PT114H.grib2 2026-04-13 16:47 916K
20260413T12Z_MSC_GDPS_AirTemp_IsbL-0001_LatLon0.15_PT114H.grib2 2026-04-13 16:47 642K
20260413T12Z_MSC_GDPS_AirTemp_IsbL-0005_LatLon0.15_PT114H.grib2 2026-04-13 16:47 678K
20260413T12Z_MSC_GDPS_AirTemp_IsbL-0010_LatLon0.15_PT114H.grib2 2026-04-13 16:47 746K
20260413T12Z_MSC_GDPS_AirTemp_IsbL-0020_LatLon0.15_PT114H.grib2 2026-04-13 16:47 691K
20260413T12Z_MSC_GDPS_AirTemp_IsbL-0030_LatLon0.15_PT114H.grib2 2026-04-13 16:47 743K
20260413T12Z_MSC_GDPS_AirTemp_IsbL-0050_LatLon0.15_PT114H.grib2 2026-04-13 16:47 809K
20260413T12Z_MSC_GDPS_AirTemp_IsbL-0100_LatLon0.15_PT114H.grib2 2026-04-13 16:47 949K
20260413T12Z_MSC_GDPS_AirTemp_IsbL-0150_LatLon0.15_PT114H.grib2 2026-04-13 16:47 959K
20260413T12Z_MSC_GDPS_AirTemp_IsbL-0175_LatLon0.15_PT114H.grib2 2026-04-13 16:47 951K
20260413T12Z_MSC_GDPS_AirTemp_IsbL-0200_LatLon0.15_PT114H.grib2 2026-04-13 16:47 962K
20260413T12Z_MSC_GDPS_AirTemp_IsbL-0225_LatLon0.15_PT114H.grib2 2026-04-13 16:47 965K
20260413T12Z_MSC_GDPS_AirTemp_IsbL-0250_LatLon0.15_PT114H.grib2 2026-04-13 16:47 1.0M
20260413T12Z_MSC_GDPS_AirTemp_IsbL-0275_LatLon0.15_PT114H.grib2 2026-04-13 16:47 1.0M
20260413T12Z_MSC_GDPS_AirTemp_IsbL-0300_LatLon0.15_PT114H.grib2 2026-04-13 16:47 1.0M
20260413T12Z_MSC_GDPS_AirTemp_IsbL-0350_LatLon0.15_PT114H.grib2 2026-04-13 16:47 917K
20260413T12Z_MSC_GDPS_AirTemp_IsbL-0400_LatLon0.15_PT114H.grib2 2026-04-13 16:47 929K
20260413T12Z_MSC_GDPS_AirTemp_IsbL-0450_LatLon0.15_PT114H.grib2 2026-04-13 16:47 952K
20260413T12Z_MSC_GDPS_AirTemp_IsbL-0500_LatLon0.15_PT114H.grib2 2026-04-13 16:47 1.0M
20260413T12Z_MSC_GDPS_AirTemp_IsbL-0550_LatLon0.15_PT114H.grib2 2026-04-13 16:47 1.0M
20260413T12Z_MSC_GDPS_AirTemp_IsbL-0600_LatLon0.15_PT114H.grib2 2026-04-13 16:47 880K
20260413T12Z_MSC_GDPS_AirTemp_IsbL-0650_LatLon0.15_PT114H.grib2 2026-04-13 16:47 913K
20260413T12Z_MSC_GDPS_AirTemp_IsbL-0700_LatLon0.15_PT114H.grib2 2026-04-13 16:47 951K
20260413T12Z_MSC_GDPS_AirTemp_IsbL-0750_LatLon0.15_PT114H.grib2 2026-04-13 16:47 1.0M
20260413T12Z_MSC_GDPS_AirTemp_IsbL-0800_LatLon0.15_PT114H.grib2 2026-04-13 16:47 1.1M
20260413T12Z_MSC_GDPS_AirTemp_IsbL-0850_LatLon0.15_PT114H.grib2 2026-04-13 16:47 1.1M
20260413T12Z_MSC_GDPS_AirTemp_IsbL-0875_LatLon0.15_PT114H.grib2 2026-04-13 16:47 1.2M
20260413T12Z_MSC_GDPS_AirTemp_IsbL-0900_LatLon0.15_PT114H.grib2 2026-04-13 16:47 1.2M
20260413T12Z_MSC_GDPS_AirTemp_IsbL-0925_LatLon0.15_PT114H.grib2 2026-04-13 16:47 1.1M
20260413T12Z_MSC_GDPS_AirTemp_IsbL-0950_LatLon0.15_PT114H.grib2 2026-04-13 16:47 1.1M
20260413T12Z_MSC_GDPS_AirTemp_IsbL-0970_LatLon0.15_PT114H.grib2 2026-04-13 16:47 1.1M
20260413T12Z_MSC_GDPS_AirTemp_IsbL-0985_LatLon0.15_PT114H.grib2 2026-04-13 16:47 1.1M
20260413T12Z_MSC_GDPS_AirTemp_IsbL-1000_LatLon0.15_PT114H.grib2 2026-04-13 16:47 1.1M
20260413T12Z_MSC_GDPS_AirTemp_IsbL-1015_LatLon0.15_PT114H.grib2 2026-04-13 16:47 1.1M
20260413T12Z_MSC_GDPS_Albedo_Sfc_LatLon0.15_PT114H.grib2 2026-04-13 16:47 247K
20260413T12Z_MSC_GDPS_CAPE_Sfc_LatLon0.15_PT114H.grib2 2026-04-13 16:47 3.8M
20260413T12Z_MSC_GDPS_CIN_Sfc_LatLon0.15_PT114H.grib2 2026-04-13 16:47 2.9M
20260413T12Z_MSC_GDPS_CloudWater_EAtm_LatLon0.15_PT114H.grib2 2026-04-13 16:47 529K
20260413T12Z_MSC_GDPS_ConvectivePrecip-Accum_Sfc_LatLon0.15_PT114H.grib2 2026-04-13 16:47 3.1M
20260413T12Z_MSC_GDPS_DewPointDepression_AGL-2m_LatLon0.15_PT114H.grib2 2026-04-13 16:47 588K
20260413T12Z_MSC_GDPS_DewPointDepression_IsbL-0010_LatLon0.15_PT114H.grib2 2026-04-13 16:47 1.1K
20260413T12Z_MSC_GDPS_DewPointDepression_IsbL-0020_LatLon0.15_PT114H.grib2 2026-04-13 16:47 55K
20260413T12Z_MSC_GDPS_DewPointDepression_IsbL-0030_LatLon0.15_PT114H.grib2 2026-04-13 16:47 69K
20260413T12Z_MSC_GDPS_DewPointDepression_IsbL-0050_LatLon0.15_PT114H.grib2 2026-04-13 16:47 358K
20260413T12Z_MSC_GDPS_DewPointDepression_IsbL-0100_LatLon0.15_PT114H.grib2 2026-04-13 16:47 369K
20260413T12Z_MSC_GDPS_DewPointDepression_IsbL-0150_LatLon0.15_PT114H.grib2 2026-04-13 16:47 455K
20260413T12Z_MSC_GDPS_DewPointDepression_IsbL-0175_LatLon0.15_PT114H.grib2 2026-04-13 16:47 533K
20260413T12Z_MSC_GDPS_DewPointDepression_IsbL-0200_LatLon0.15_PT114H.grib2 2026-04-13 16:47 621K
20260413T12Z_MSC_GDPS_DewPointDepression_IsbL-0225_LatLon0.15_PT114H.grib2 2026-04-13 16:47 757K
20260413T12Z_MSC_GDPS_DewPointDepression_IsbL-0250_LatLon0.15_PT114H.grib2 2026-04-13 16:47 875K
20260413T12Z_MSC_GDPS_DewPointDepression_IsbL-0275_LatLon0.15_PT114H.grib2 2026-04-13 16:47 894K
20260413T12Z_MSC_GDPS_DewPointDepression_IsbL-0300_LatLon0.15_PT114H.grib2 2026-04-13 16:47 926K
20260413T12Z_MSC_GDPS_DewPointDepression_IsbL-0350_LatLon0.15_PT114H.grib2 2026-04-13 16:47 950K
20260413T12Z_MSC_GDPS_DewPointDepression_IsbL-0400_LatLon0.15_PT114H.grib2 2026-04-13 16:47 1.0M
20260413T12Z_MSC_GDPS_DewPointDepression_IsbL-0450_LatLon0.15_PT114H.grib2 2026-04-13 16:47 1.0M
20260413T12Z_MSC_GDPS_DewPointDepression_IsbL-0500_LatLon0.15_PT114H.grib2 2026-04-13 16:47 1.0M
20260413T12Z_MSC_GDPS_DewPointDepression_IsbL-0550_LatLon0.15_PT114H.grib2 2026-04-13 16:47 1.0M
20260413T12Z_MSC_GDPS_DewPointDepression_IsbL-0600_LatLon0.15_PT114H.grib2 2026-04-13 16:47 1.1M
20260413T12Z_MSC_GDPS_DewPointDepression_IsbL-0650_LatLon0.15_PT114H.grib2 2026-04-13 16:47 1.1M
20260413T12Z_MSC_GDPS_DewPointDepression_IsbL-0700_LatLon0.15_PT114H.grib2 2026-04-13 16:47 1.1M
20260413T12Z_MSC_GDPS_DewPointDepression_IsbL-0750_LatLon0.15_PT114H.grib2 2026-04-13 16:47 1.1M
20260413T12Z_MSC_GDPS_DewPointDepression_IsbL-0800_LatLon0.15_PT114H.grib2 2026-04-13 16:47 1.2M
20260413T12Z_MSC_GDPS_DewPointDepression_IsbL-0850_LatLon0.15_PT114H.grib2 2026-04-13 16:47 1.2M
20260413T12Z_MSC_GDPS_DewPointDepression_IsbL-0875_LatLon0.15_PT114H.grib2 2026-04-13 16:47 1.1M
20260413T12Z_MSC_GDPS_DewPointDepression_IsbL-0900_LatLon0.15_PT114H.grib2 2026-04-13 16:47 1.1M
20260413T12Z_MSC_GDPS_DewPointDepression_IsbL-0925_LatLon0.15_PT114H.grib2 2026-04-13 16:47 1.0M
20260413T12Z_MSC_GDPS_DewPointDepression_IsbL-0950_LatLon0.15_PT114H.grib2 2026-04-13 16:47 1.0M
20260413T12Z_MSC_GDPS_DewPointDepression_IsbL-0970_LatLon0.15_PT114H.grib2 2026-04-13 16:47 1.0M
20260413T12Z_MSC_GDPS_DewPointDepression_IsbL-0985_LatLon0.15_PT114H.grib2 2026-04-13 16:47 1.0M
20260413T12Z_MSC_GDPS_DewPointDepression_IsbL-1000_LatLon0.15_PT114H.grib2 2026-04-13 16:47 967K
20260413T12Z_MSC_GDPS_DewPointDepression_IsbL-1015_LatLon0.15_PT114H.grib2 2026-04-13 16:47 909K
20260413T12Z_MSC_GDPS_DewPoint_AGL-2m_LatLon0.15_PT114H.grib2 2026-04-13 16:47 611K
20260413T12Z_MSC_GDPS_DownwardLongwaveRadiationFlux-Accum_Sfc_LatLon0.15_PT114H.grib2 2026-04-13 16:47 793K
20260413T12Z_MSC_GDPS_DownwardShortwaveRadiationFlux-Accum_NTAtm_LatLon0.15_PT114H.grib2 2026-04-13 16:47 306K
20260413T12Z_MSC_GDPS_DownwardShortwaveRadiationFlux-Accum_Sfc_LatLon0.15_PT114H.grib2 2026-04-13 16:47 1.0M
20260413T12Z_MSC_GDPS_FreezingRain-Accum12h_Sfc_LatLon0.15_PT114H.grib2 2026-04-13 16:47 99K
20260413T12Z_MSC_GDPS_FreezingRain-Accum1h_Sfc_LatLon0.15_PT114H.grib2 2026-04-13 16:47 38K
20260413T12Z_MSC_GDPS_FreezingRain-Accum24h_Sfc_LatLon0.15_PT114H.grib2 2026-04-13 16:47 124K
20260413T12Z_MSC_GDPS_FreezingRain-Accum3h_Sfc_LatLon0.15_PT114H.grib2 2026-04-13 16:47 49K
20260413T12Z_MSC_GDPS_FreezingRain-Accum6h_Sfc_LatLon0.15_PT114H.grib2 2026-04-13 16:47 77K
20260413T12Z_MSC_GDPS_FreezingRain-Accum_Sfc_LatLon0.15_PT114H.grib2 2026-04-13 16:47 256K
20260413T12Z_MSC_GDPS_GeopotentialHeight_IsbL-0001_LatLon0.15_PT114H.grib2 2026-04-13 16:47 517K
20260413T12Z_MSC_GDPS_GeopotentialHeight_IsbL-0005_LatLon0.15_PT114H.grib2 2026-04-13 16:47 497K
20260413T12Z_MSC_GDPS_GeopotentialHeight_IsbL-0010_LatLon0.15_PT114H.grib2 2026-04-13 16:47 431K
20260413T12Z_MSC_GDPS_GeopotentialHeight_IsbL-0020_LatLon0.15_PT114H.grib2 2026-04-13 16:47 571K
20260413T12Z_MSC_GDPS_GeopotentialHeight_IsbL-0030_LatLon0.15_PT114H.grib2 2026-04-13 16:47 578K
20260413T12Z_MSC_GDPS_GeopotentialHeight_IsbL-0050_LatLon0.15_PT114H.grib2 2026-04-13 16:47 577K
20260413T12Z_MSC_GDPS_GeopotentialHeight_IsbL-0100_LatLon0.15_PT114H.grib2 2026-04-13 16:47 616K
20260413T12Z_MSC_GDPS_GeopotentialHeight_IsbL-0150_LatLon0.15_PT114H.grib2 2026-04-13 16:47 631K
20260413T12Z_MSC_GDPS_GeopotentialHeight_IsbL-0175_LatLon0.15_PT114H.grib2 2026-04-13 16:47 632K
20260413T12Z_MSC_GDPS_GeopotentialHeight_IsbL-0200_LatLon0.15_PT114H.grib2 2026-04-13 16:47 635K
20260413T12Z_MSC_GDPS_GeopotentialHeight_IsbL-0225_LatLon0.15_PT114H.grib2 2026-04-13 16:47 639K
20260413T12Z_MSC_GDPS_GeopotentialHeight_IsbL-0250_LatLon0.15_PT114H.grib2 2026-04-13 16:47 638K
20260413T12Z_MSC_GDPS_GeopotentialHeight_IsbL-0275_LatLon0.15_PT114H.grib2 2026-04-13 16:47 640K
20260413T12Z_MSC_GDPS_GeopotentialHeight_IsbL-0300_LatLon0.15_PT114H.grib2 2026-04-13 16:47 638K
20260413T12Z_MSC_GDPS_GeopotentialHeight_IsbL-0350_LatLon0.15_PT114H.grib2 2026-04-13 16:47 629K
20260413T12Z_MSC_GDPS_GeopotentialHeight_IsbL-0400_LatLon0.15_PT114H.grib2 2026-04-13 16:47 619K
20260413T12Z_MSC_GDPS_GeopotentialHeight_IsbL-0450_LatLon0.15_PT114H.grib2 2026-04-13 16:47 539K
20260413T12Z_MSC_GDPS_GeopotentialHeight_IsbL-0500_LatLon0.15_PT114H.grib2 2026-04-13 16:47 529K
20260413T12Z_MSC_GDPS_GeopotentialHeight_IsbL-0550_LatLon0.15_PT114H.grib2 2026-04-13 16:47 688K
20260413T12Z_MSC_GDPS_GeopotentialHeight_IsbL-0600_LatLon0.15_PT114H.grib2 2026-04-13 16:47 679K
20260413T12Z_MSC_GDPS_GeopotentialHeight_IsbL-0650_LatLon0.15_PT114H.grib2 2026-04-13 16:47 680K
20260413T12Z_MSC_GDPS_GeopotentialHeight_IsbL-0700_LatLon0.15_PT114H.grib2 2026-04-13 16:47 682K
20260413T12Z_MSC_GDPS_GeopotentialHeight_IsbL-0750_LatLon0.15_PT114H.grib2 2026-04-13 16:47 687K
20260413T12Z_MSC_GDPS_GeopotentialHeight_IsbL-0800_LatLon0.15_PT114H.grib2 2026-04-13 16:47 632K
20260413T12Z_MSC_GDPS_GeopotentialHeight_IsbL-0850_LatLon0.15_PT114H.grib2 2026-04-13 16:47 644K
20260413T12Z_MSC_GDPS_GeopotentialHeight_IsbL-0875_LatLon0.15_PT114H.grib2 2026-04-13 16:47 649K
20260413T12Z_MSC_GDPS_GeopotentialHeight_IsbL-0900_LatLon0.15_PT114H.grib2 2026-04-13 16:47 718K
20260413T12Z_MSC_GDPS_GeopotentialHeight_IsbL-0925_LatLon0.15_PT114H.grib2 2026-04-13 16:47 726K
20260413T12Z_MSC_GDPS_GeopotentialHeight_IsbL-0950_LatLon0.15_PT114H.grib2 2026-04-13 16:47 735K
20260413T12Z_MSC_GDPS_GeopotentialHeight_IsbL-0970_LatLon0.15_PT114H.grib2 2026-04-13 16:47 747K
20260413T12Z_MSC_GDPS_GeopotentialHeight_IsbL-0985_LatLon0.15_PT114H.grib2 2026-04-13 16:47 762K
20260413T12Z_MSC_GDPS_GeopotentialHeight_IsbL-1000_LatLon0.15_PT114H.grib2 2026-04-13 16:47 782K
20260413T12Z_MSC_GDPS_GeopotentialHeight_IsbL-1015_LatLon0.15_PT114H.grib2 2026-04-13 16:47 805K
20260413T12Z_MSC_GDPS_Humidex_Sfc_LatLon0.15_PT114H.grib2 2026-04-13 16:47 5.3M
20260413T12Z_MSC_GDPS_IcePellets-Accum12h_Sfc_LatLon0.15_PT114H.grib2 2026-04-13 16:47 41K
20260413T12Z_MSC_GDPS_IcePellets-Accum1h_Sfc_LatLon0.15_PT114H.grib2 2026-04-13 16:47 18K
20260413T12Z_MSC_GDPS_IcePellets-Accum24h_Sfc_LatLon0.15_PT114H.grib2 2026-04-13 16:47 46K
20260413T12Z_MSC_GDPS_IcePellets-Accum3h_Sfc_LatLon0.15_PT114H.grib2 2026-04-13 16:47 18K
20260413T12Z_MSC_GDPS_IcePellets-Accum6h_Sfc_LatLon0.15_PT114H.grib2 2026-04-13 16:47 31K
20260413T12Z_MSC_GDPS_IcePellets-Accum_Sfc_LatLon0.15_PT114H.grib2 2026-04-13 16:47 126K
20260413T12Z_MSC_GDPS_KIndex_Sfc_LatLon0.15_PT114H.grib2 2026-04-13 16:47 6.5M
20260413T12Z_MSC_GDPS_LatentHeatNetFlux_Sfc_LatLon0.15_PT114H.grib2 2026-04-13 16:47 523K
20260413T12Z_MSC_GDPS_LiftedIndex-MU-VT_IsbL-0500_LatLon0.15_PT114H.grib2 2026-04-13 16:47 5.4M
20260413T12Z_MSC_GDPS_NetLongwaveRadiationFlux-Accum_Sfc_LatLon0.15_PT114H.grib2 2026-04-13 16:47 1.0M
20260413T12Z_MSC_GDPS_NetShortwaveRadiationFlux-Accum_Sfc_LatLon0.15_PT114H.grib2 2026-04-13 16:47 1.0M
20260413T12Z_MSC_GDPS_O3MixingRatio_LatLon0.15_PT114H.grib2 2026-04-13 17:07 1.9M
20260413T12Z_MSC_GDPS_O3_EAtm_LatLon0.15_PT114H.grib2 2026-04-13 17:07 2.1M
20260413T12Z_MSC_GDPS_PlanetaryBoundaryLayerHeight_Sfc_LatLon0.15_PT114H.grib2 2026-04-13 16:47 2.4M
20260413T12Z_MSC_GDPS_Precip-Accum12h_Sfc_LatLon0.15_PT114H.grib2 2026-04-13 16:47 4.2M
20260413T12Z_MSC_GDPS_Precip-Accum1h_Sfc_LatLon0.15_PT114H.grib2 2026-04-13 16:47 3.2M
20260413T12Z_MSC_GDPS_Precip-Accum24h_Sfc_LatLon0.15_PT114H.grib2 2026-04-13 16:47 4.5M
20260413T12Z_MSC_GDPS_Precip-Accum3h_Sfc_LatLon0.15_PT114H.grib2 2026-04-13 16:47 3.4M
20260413T12Z_MSC_GDPS_Precip-Accum6h_Sfc_LatLon0.15_PT114H.grib2 2026-04-13 16:47 3.7M
20260413T12Z_MSC_GDPS_Precip-Accum_Sfc_LatLon0.15_PT114H.grib2 2026-04-13 16:47 5.0M
20260413T12Z_MSC_GDPS_PrecipRate_Sfc_LatLon0.15_PT114H.grib2 2026-04-13 16:47 3.0M
20260413T12Z_MSC_GDPS_PrecipType-Instant_Sfc_LatLon0.15_PT114H.grib2 2026-04-13 16:47 1.5M
20260413T12Z_MSC_GDPS_Pressure_MSL_LatLon0.15_PT114H.grib2 2026-04-13 16:47 716K
20260413T12Z_MSC_GDPS_Pressure_PVU-1.5_LatLon0.15_PT114H.grib2 2026-04-13 16:47 5.8M
20260413T12Z_MSC_GDPS_Pressure_PVU-1_LatLon0.15_PT114H.grib2 2026-04-13 16:47 6.0M
20260413T12Z_MSC_GDPS_Pressure_PVU-2_LatLon0.15_PT114H.grib2 2026-04-13 16:47 5.6M
20260413T12Z_MSC_GDPS_Pressure_Sfc_LatLon0.15_PT114H.grib2 2026-04-13 16:47 1.1M
20260413T12Z_MSC_GDPS_RadiativeTemp_Sfc_LatLon0.15_PT114H.grib2 2026-04-13 16:47 673K
20260413T12Z_MSC_GDPS_Rain-Accum12h_Sfc_LatLon0.15_PT114H.grib2 2026-04-13 16:47 2.8M
20260413T12Z_MSC_GDPS_Rain-Accum1h_Sfc_LatLon0.15_PT114H.grib2 2026-04-13 16:47 1.6M
20260413T12Z_MSC_GDPS_Rain-Accum24h_Sfc_LatLon0.15_PT114H.grib2 2026-04-13 16:47 3.1M
20260413T12Z_MSC_GDPS_Rain-Accum3h_Sfc_LatLon0.15_PT114H.grib2 2026-04-13 16:47 1.6M
20260413T12Z_MSC_GDPS_Rain-Accum6h_Sfc_LatLon0.15_PT114H.grib2 2026-04-13 16:47 2.3M
20260413T12Z_MSC_GDPS_Rain-Accum_Sfc_LatLon0.15_PT114H.grib2 2026-04-13 16:47 3.8M
20260413T12Z_MSC_GDPS_RelativeHumidity_AGL-2m_LatLon0.15_PT114H.grib2 2026-04-13 16:47 1.0M
20260413T12Z_MSC_GDPS_RelativeHumidity_IsbL-0010_LatLon0.15_PT114H.grib2 2026-04-13 16:47 225K
20260413T12Z_MSC_GDPS_RelativeHumidity_IsbL-0020_LatLon0.15_PT114H.grib2 2026-04-13 16:47 365K
20260413T12Z_MSC_GDPS_RelativeHumidity_IsbL-0030_LatLon0.15_PT114H.grib2 2026-04-13 16:47 376K
20260413T12Z_MSC_GDPS_RelativeHumidity_IsbL-0050_LatLon0.15_PT114H.grib2 2026-04-13 16:47 317K
20260413T12Z_MSC_GDPS_RelativeHumidity_IsbL-0100_LatLon0.15_PT114H.grib2 2026-04-13 16:47 480K
20260413T12Z_MSC_GDPS_RelativeHumidity_IsbL-0150_LatLon0.15_PT114H.grib2 2026-04-13 16:47 643K
20260413T12Z_MSC_GDPS_RelativeHumidity_IsbL-0175_LatLon0.15_PT114H.grib2 2026-04-13 16:47 776K
20260413T12Z_MSC_GDPS_RelativeHumidity_IsbL-0200_LatLon0.15_PT114H.grib2 2026-04-13 16:47 687K
20260413T12Z_MSC_GDPS_RelativeHumidity_IsbL-0225_LatLon0.15_PT114H.grib2 2026-04-13 16:47 781K
20260413T12Z_MSC_GDPS_RelativeHumidity_IsbL-0250_LatLon0.15_PT114H.grib2 2026-04-13 16:47 872K
20260413T12Z_MSC_GDPS_RelativeHumidity_IsbL-0275_LatLon0.15_PT114H.grib2 2026-04-13 16:47 895K
20260413T12Z_MSC_GDPS_RelativeHumidity_IsbL-0300_LatLon0.15_PT114H.grib2 2026-04-13 16:47 938K
20260413T12Z_MSC_GDPS_RelativeHumidity_IsbL-0350_LatLon0.15_PT114H.grib2 2026-04-13 16:47 955K
20260413T12Z_MSC_GDPS_RelativeHumidity_IsbL-0400_LatLon0.15_PT114H.grib2 2026-04-13 16:47 1.0M
20260413T12Z_MSC_GDPS_RelativeHumidity_IsbL-0450_LatLon0.15_PT114H.grib2 2026-04-13 16:47 1.0M
20260413T12Z_MSC_GDPS_RelativeHumidity_IsbL-0500_LatLon0.15_PT114H.grib2 2026-04-13 16:47 1.0M
20260413T12Z_MSC_GDPS_RelativeHumidity_IsbL-0550_LatLon0.15_PT114H.grib2 2026-04-13 16:47 1.0M
20260413T12Z_MSC_GDPS_RelativeHumidity_IsbL-0600_LatLon0.15_PT114H.grib2 2026-04-13 16:47 1.0M
20260413T12Z_MSC_GDPS_RelativeHumidity_IsbL-0650_LatLon0.15_PT114H.grib2 2026-04-13 16:47 1.1M
20260413T12Z_MSC_GDPS_RelativeHumidity_IsbL-0700_LatLon0.15_PT114H.grib2 2026-04-13 16:47 1.1M
20260413T12Z_MSC_GDPS_RelativeHumidity_IsbL-0750_LatLon0.15_PT114H.grib2 2026-04-13 16:47 1.2M
20260413T12Z_MSC_GDPS_RelativeHumidity_IsbL-0800_LatLon0.15_PT114H.grib2 2026-04-13 16:47 1.3M
20260413T12Z_MSC_GDPS_RelativeHumidity_IsbL-0850_LatLon0.15_PT114H.grib2 2026-04-13 16:47 1.3M
20260413T12Z_MSC_GDPS_RelativeHumidity_IsbL-0875_LatLon0.15_PT114H.grib2 2026-04-13 16:47 1.3M
20260413T12Z_MSC_GDPS_RelativeHumidity_IsbL-0900_LatLon0.15_PT114H.grib2 2026-04-13 16:47 1.2M
20260413T12Z_MSC_GDPS_RelativeHumidity_IsbL-0925_LatLon0.15_PT114H.grib2 2026-04-13 16:47 1.2M
20260413T12Z_MSC_GDPS_RelativeHumidity_IsbL-0950_LatLon0.15_PT114H.grib2 2026-04-13 16:47 1.2M
20260413T12Z_MSC_GDPS_RelativeHumidity_IsbL-0970_LatLon0.15_PT114H.grib2 2026-04-13 16:47 1.2M
20260413T12Z_MSC_GDPS_RelativeHumidity_IsbL-0985_LatLon0.15_PT114H.grib2 2026-04-13 16:47 1.1M
20260413T12Z_MSC_GDPS_RelativeHumidity_IsbL-1000_LatLon0.15_PT114H.grib2 2026-04-13 16:47 1.1M
20260413T12Z_MSC_GDPS_RelativeHumidity_IsbL-1015_LatLon0.15_PT114H.grib2 2026-04-13 16:47 1.0M
20260413T12Z_MSC_GDPS_RelativeVorticity_IsbL-0200_LatLon0.15_PT114H.grib2 2026-04-13 16:47 1.5M
20260413T12Z_MSC_GDPS_RelativeVorticity_IsbL-0250_LatLon0.15_PT114H.grib2 2026-04-13 16:47 1.6M
20260413T12Z_MSC_GDPS_RelativeVorticity_IsbL-0500_LatLon0.15_PT114H.grib2 2026-04-13 16:47 1.4M
20260413T12Z_MSC_GDPS_RelativeVorticity_IsbL-0700_LatLon0.15_PT114H.grib2 2026-04-13 16:47 1.6M
20260413T12Z_MSC_GDPS_RelativeVorticity_IsbL-0850_LatLon0.15_PT114H.grib2 2026-04-13 16:47 1.6M
20260413T12Z_MSC_GDPS_Runoff-Accum_Sfc_LatLon0.15_PT114H.grib2 2026-04-13 16:47 113K
20260413T12Z_MSC_GDPS_SensibleHeatNetFlux_Sfc_LatLon0.15_PT114H.grib2 2026-04-13 16:47 639K
20260413T12Z_MSC_GDPS_ShowalterIndex_IsbL-0500_LatLon0.15_PT114H.grib2 2026-04-13 16:47 6.2M
20260413T12Z_MSC_GDPS_Snow-Accum12h_Sfc_LatLon0.15_PT114H.grib2 2026-04-13 16:47 1.5M
20260413T12Z_MSC_GDPS_Snow-Accum1h_Sfc_LatLon0.15_PT114H.grib2 2026-04-13 16:47 1.1M
20260413T12Z_MSC_GDPS_Snow-Accum24h_Sfc_LatLon0.15_PT114H.grib2 2026-04-13 16:47 1.7M
20260413T12Z_MSC_GDPS_Snow-Accum3h_Sfc_LatLon0.15_PT114H.grib2 2026-04-13 16:47 1.1M
20260413T12Z_MSC_GDPS_Snow-Accum6h_Sfc_LatLon0.15_PT114H.grib2 2026-04-13 16:47 1.4M
20260413T12Z_MSC_GDPS_Snow-Accum_Sfc_LatLon0.15_PT114H.grib2 2026-04-13 16:47 1.9M
20260413T12Z_MSC_GDPS_SnowDensity_Sfc_LatLon0.15_PT114H.grib2 2026-04-13 16:47 268K
20260413T12Z_MSC_GDPS_SnowDepth_Sfc_LatLon0.15_PT114H.grib2 2026-04-13 16:47 1.8M
20260413T12Z_MSC_GDPS_SoilTemp_DBS-0to10cm_LatLon0.15_PT114H.grib2 2026-04-13 16:47 507K
20260413T12Z_MSC_GDPS_SoilTemp_Sfc_LatLon0.15_PT114H.grib2 2026-04-13 16:47 578K
20260413T12Z_MSC_GDPS_SoilVolumetricIceContent_Sfc_LatLon0.15_PT114H.grib2 2026-04-13 16:47 223K
20260413T12Z_MSC_GDPS_SoilVolumetricWaterContent_DBS-0to10cm_LatLon0.15_PT114H.grib2 2026-04-13 16:47 552K
20260413T12Z_MSC_GDPS_SoilVolumetricWaterContent_DBS-0to1cm_LatLon0.15_PT114H.grib2 2026-04-13 16:47 653K
20260413T12Z_MSC_GDPS_SpecificHumidity_AGL-120m_LatLon0.15_PT114H.grib2 2026-04-13 16:47 1.1M
20260413T12Z_MSC_GDPS_SpecificHumidity_AGL-2m_LatLon0.15_PT114H.grib2 2026-04-13 16:47 1.2M
20260413T12Z_MSC_GDPS_SpecificHumidity_AGL-40m_LatLon0.15_PT114H.grib2 2026-04-13 16:47 1.1M
20260413T12Z_MSC_GDPS_SpecificHumidity_AGL-80m_LatLon0.15_PT114H.grib2 2026-04-13 16:47 1.1M
20260413T12Z_MSC_GDPS_SpecificHumidity_IsbL-0001_LatLon0.15_PT114H.grib2 2026-04-13 16:47 1.1M
20260413T12Z_MSC_GDPS_SpecificHumidity_IsbL-0005_LatLon0.15_PT114H.grib2 2026-04-13 16:47 1.1M
20260413T12Z_MSC_GDPS_SpecificHumidity_IsbL-0010_LatLon0.15_PT114H.grib2 2026-04-13 16:47 1.2M
20260413T12Z_MSC_GDPS_SpecificHumidity_IsbL-0020_LatLon0.15_PT114H.grib2 2026-04-13 16:47 1.3M
20260413T12Z_MSC_GDPS_SpecificHumidity_IsbL-0030_LatLon0.15_PT114H.grib2 2026-04-13 16:47 1.6M
20260413T12Z_MSC_GDPS_SpecificHumidity_IsbL-0050_LatLon0.15_PT114H.grib2 2026-04-13 16:47 1.3M
20260413T12Z_MSC_GDPS_SpecificHumidity_IsbL-0100_LatLon0.15_PT114H.grib2 2026-04-13 16:47 1.3M
20260413T12Z_MSC_GDPS_SpecificHumidity_IsbL-0150_LatLon0.15_PT114H.grib2 2026-04-13 16:47 1.3M
20260413T12Z_MSC_GDPS_SpecificHumidity_IsbL-0175_LatLon0.15_PT114H.grib2 2026-04-13 16:47 1.3M
20260413T12Z_MSC_GDPS_SpecificHumidity_IsbL-0200_LatLon0.15_PT114H.grib2 2026-04-13 16:47 1.3M
20260413T12Z_MSC_GDPS_SpecificHumidity_IsbL-0225_LatLon0.15_PT114H.grib2 2026-04-13 16:47 1.3M
20260413T12Z_MSC_GDPS_SpecificHumidity_IsbL-0250_LatLon0.15_PT114H.grib2 2026-04-13 16:47 1.2M
20260413T12Z_MSC_GDPS_SpecificHumidity_IsbL-0275_LatLon0.15_PT114H.grib2 2026-04-13 16:47 1.1M
20260413T12Z_MSC_GDPS_SpecificHumidity_IsbL-0300_LatLon0.15_PT114H.grib2 2026-04-13 16:47 1.2M
20260413T12Z_MSC_GDPS_SpecificHumidity_IsbL-0350_LatLon0.15_PT114H.grib2 2026-04-13 16:47 1.2M
20260413T12Z_MSC_GDPS_SpecificHumidity_IsbL-0400_LatLon0.15_PT114H.grib2 2026-04-13 16:47 1.4M
20260413T12Z_MSC_GDPS_SpecificHumidity_IsbL-0450_LatLon0.15_PT114H.grib2 2026-04-13 16:47 1.3M
20260413T12Z_MSC_GDPS_SpecificHumidity_IsbL-0500_LatLon0.15_PT114H.grib2 2026-04-13 16:47 1.4M
20260413T12Z_MSC_GDPS_SpecificHumidity_IsbL-0550_LatLon0.15_PT114H.grib2 2026-04-13 16:47 1.6M
20260413T12Z_MSC_GDPS_SpecificHumidity_IsbL-0600_LatLon0.15_PT114H.grib2 2026-04-13 16:47 1.4M
20260413T12Z_MSC_GDPS_SpecificHumidity_IsbL-0650_LatLon0.15_PT114H.grib2 2026-04-13 16:47 1.5M
20260413T12Z_MSC_GDPS_SpecificHumidity_IsbL-0700_LatLon0.15_PT114H.grib2 2026-04-13 16:47 1.6M
20260413T12Z_MSC_GDPS_SpecificHumidity_IsbL-0750_LatLon0.15_PT114H.grib2 2026-04-13 16:47 1.7M
20260413T12Z_MSC_GDPS_SpecificHumidity_IsbL-0800_LatLon0.15_PT114H.grib2 2026-04-13 16:47 1.8M
20260413T12Z_MSC_GDPS_SpecificHumidity_IsbL-0850_LatLon0.15_PT114H.grib2 2026-04-13 16:47 1.9M
20260413T12Z_MSC_GDPS_SpecificHumidity_IsbL-0875_LatLon0.15_PT114H.grib2 2026-04-13 16:47 1.9M
20260413T12Z_MSC_GDPS_SpecificHumidity_IsbL-0900_LatLon0.15_PT114H.grib2 2026-04-13 16:47 1.9M
20260413T12Z_MSC_GDPS_SpecificHumidity_IsbL-0925_LatLon0.15_PT114H.grib2 2026-04-13 16:47 1.9M
20260413T12Z_MSC_GDPS_SpecificHumidity_IsbL-0950_LatLon0.15_PT114H.grib2 2026-04-13 16:47 1.5M
20260413T12Z_MSC_GDPS_SpecificHumidity_IsbL-0970_LatLon0.15_PT114H.grib2 2026-04-13 16:47 1.5M
20260413T12Z_MSC_GDPS_SpecificHumidity_IsbL-0985_LatLon0.15_PT114H.grib2 2026-04-13 16:47 1.5M
20260413T12Z_MSC_GDPS_SpecificHumidity_IsbL-1000_LatLon0.15_PT114H.grib2 2026-04-13 16:47 1.5M
20260413T12Z_MSC_GDPS_SpecificHumidity_IsbL-1015_LatLon0.15_PT114H.grib2 2026-04-13 16:47 1.4M
20260413T12Z_MSC_GDPS_SpecificHumidity_Sfc_LatLon0.15_PT114H.grib2 2026-04-13 16:47 664K
20260413T12Z_MSC_GDPS_Thickness_IsbL-0850to0700_LatLon0.15_PT114H.grib2 2026-04-13 16:47 467K
20260413T12Z_MSC_GDPS_Thickness_IsbL-1000to0500_LatLon0.15_PT114H.grib2 2026-04-13 16:47 376K
20260413T12Z_MSC_GDPS_Thickness_IsbL-1000to0850_LatLon0.15_PT114H.grib2 2026-04-13 16:47 491K
20260413T12Z_MSC_GDPS_TotalCloudCover_Sfc_LatLon0.15_PT114H.grib2 2026-04-13 16:47 816K
20260413T12Z_MSC_GDPS_TotalTotalsIndex_Sfc_LatLon0.15_PT114H.grib2 2026-04-13 16:47 6.2M
20260413T12Z_MSC_GDPS_UVIndex-ClearSky_Sfc_LatLon0.15_PT114H.grib2 2026-04-13 17:07 1.0M
20260413T12Z_MSC_GDPS_UVIndex_Sfc_LatLon0.15_PT114H.grib2 2026-04-13 17:07 1.4M
20260413T12Z_MSC_GDPS_UpwardLongwaveRadiationFlux_NTAtm_LatLon0.15_PT114H.grib2 2026-04-13 16:47 824K
20260413T12Z_MSC_GDPS_VerticalVelocity_IsbL-0200_LatLon0.15_PT114H.grib2 2026-04-13 16:47 1.1M
20260413T12Z_MSC_GDPS_VerticalVelocity_IsbL-0250_LatLon0.15_PT114H.grib2 2026-04-13 16:47 1.0M
20260413T12Z_MSC_GDPS_VerticalVelocity_IsbL-0500_LatLon0.15_PT114H.grib2 2026-04-13 16:47 1.3M
20260413T12Z_MSC_GDPS_VerticalVelocity_IsbL-0600_LatLon0.15_PT114H.grib2 2026-04-13 16:47 1.3M
20260413T12Z_MSC_GDPS_VerticalVelocity_IsbL-0700_LatLon0.15_PT114H.grib2 2026-04-13 16:47 1.4M
20260413T12Z_MSC_GDPS_VerticalVelocity_IsbL-0850_LatLon0.15_PT114H.grib2 2026-04-13 16:47 1.3M
20260413T12Z_MSC_GDPS_WindChill_Sfc_LatLon0.15_PT114H.grib2 2026-04-13 16:47 5.3M
20260413T12Z_MSC_GDPS_WindDir_AGL-10m_LatLon0.15_PT114H.grib2 2026-04-13 16:47 1.3M
20260413T12Z_MSC_GDPS_WindDir_AGL-120m_LatLon0.15_PT114H.grib2 2026-04-13 16:47 1.4M
20260413T12Z_MSC_GDPS_WindDir_AGL-40m_LatLon0.15_PT114H.grib2 2026-04-13 16:47 1.4M
20260413T12Z_MSC_GDPS_WindDir_AGL-80m_LatLon0.15_PT114H.grib2 2026-04-13 16:47 1.4M
20260413T12Z_MSC_GDPS_WindDir_IsbL-0001_LatLon0.15_PT114H.grib2 2026-04-13 16:47 633K
20260413T12Z_MSC_GDPS_WindDir_IsbL-0005_LatLon0.15_PT114H.grib2 2026-04-13 16:47 787K
20260413T12Z_MSC_GDPS_WindDir_IsbL-0010_LatLon0.15_PT114H.grib2 2026-04-13 16:47 833K
20260413T12Z_MSC_GDPS_WindDir_IsbL-0020_LatLon0.15_PT114H.grib2 2026-04-13 16:47 909K
20260413T12Z_MSC_GDPS_WindDir_IsbL-0030_LatLon0.15_PT114H.grib2 2026-04-13 16:47 865K
20260413T12Z_MSC_GDPS_WindDir_IsbL-0050_LatLon0.15_PT114H.grib2 2026-04-13 16:47 935K
20260413T12Z_MSC_GDPS_WindDir_IsbL-0100_LatLon0.15_PT114H.grib2 2026-04-13 16:47 1.0M
20260413T12Z_MSC_GDPS_WindDir_IsbL-0150_LatLon0.15_PT114H.grib2 2026-04-13 16:47 1.0M
20260413T12Z_MSC_GDPS_WindDir_IsbL-0175_LatLon0.15_PT114H.grib2 2026-04-13 16:47 1.0M
20260413T12Z_MSC_GDPS_WindDir_IsbL-0200_LatLon0.15_PT114H.grib2 2026-04-13 16:47 1.1M
20260413T12Z_MSC_GDPS_WindDir_IsbL-0225_LatLon0.15_PT114H.grib2 2026-04-13 16:47 1.1M
20260413T12Z_MSC_GDPS_WindDir_IsbL-0250_LatLon0.15_PT114H.grib2 2026-04-13 16:47 1.1M
20260413T12Z_MSC_GDPS_WindDir_IsbL-0275_LatLon0.15_PT114H.grib2 2026-04-13 16:47 1.2M
20260413T12Z_MSC_GDPS_WindDir_IsbL-0300_LatLon0.15_PT114H.grib2 2026-04-13 16:47 1.2M
20260413T12Z_MSC_GDPS_WindDir_IsbL-0350_LatLon0.15_PT114H.grib2 2026-04-13 16:47 1.2M
20260413T12Z_MSC_GDPS_WindDir_IsbL-0400_LatLon0.15_PT114H.grib2 2026-04-13 16:47 1.3M
20260413T12Z_MSC_GDPS_WindDir_IsbL-0450_LatLon0.15_PT114H.grib2 2026-04-13 16:47 1.3M
20260413T12Z_MSC_GDPS_WindDir_IsbL-0500_LatLon0.15_PT114H.grib2 2026-04-13 16:47 1.3M
20260413T12Z_MSC_GDPS_WindDir_IsbL-0550_LatLon0.15_PT114H.grib2 2026-04-13 16:47 1.4M
20260413T12Z_MSC_GDPS_WindDir_IsbL-0600_LatLon0.15_PT114H.grib2 2026-04-13 16:47 1.4M
20260413T12Z_MSC_GDPS_WindDir_IsbL-0650_LatLon0.15_PT114H.grib2 2026-04-13 16:47 1.5M
20260413T12Z_MSC_GDPS_WindDir_IsbL-0700_LatLon0.15_PT114H.grib2 2026-04-13 16:47 1.6M
20260413T12Z_MSC_GDPS_WindDir_IsbL-0750_LatLon0.15_PT114H.grib2 2026-04-13 16:47 1.7M
20260413T12Z_MSC_GDPS_WindDir_IsbL-0800_LatLon0.15_PT114H.grib2 2026-04-13 16:47 1.8M
20260413T12Z_MSC_GDPS_WindDir_IsbL-0850_LatLon0.15_PT114H.grib2 2026-04-13 16:47 2.0M
20260413T12Z_MSC_GDPS_WindDir_IsbL-0875_LatLon0.15_PT114H.grib2 2026-04-13 16:47 2.0M
20260413T12Z_MSC_GDPS_WindDir_IsbL-0900_LatLon0.15_PT114H.grib2 2026-04-13 16:47 2.0M
20260413T12Z_MSC_GDPS_WindDir_IsbL-0925_LatLon0.15_PT114H.grib2 2026-04-13 16:47 2.0M
20260413T12Z_MSC_GDPS_WindDir_IsbL-0950_LatLon0.15_PT114H.grib2 2026-04-13 16:47 2.0M
20260413T12Z_MSC_GDPS_WindDir_IsbL-0970_LatLon0.15_PT114H.grib2 2026-04-13 16:47 2.0M
20260413T12Z_MSC_GDPS_WindDir_IsbL-0985_LatLon0.15_PT114H.grib2 2026-04-13 16:47 2.0M
20260413T12Z_MSC_GDPS_WindDir_IsbL-1000_LatLon0.15_PT114H.grib2 2026-04-13 16:47 2.1M
20260413T12Z_MSC_GDPS_WindDir_IsbL-1015_LatLon0.15_PT114H.grib2 2026-04-13 16:47 2.1M
20260413T12Z_MSC_GDPS_WindGust-Max_AGL-10m_LatLon0.15_PT114H.grib2 2026-04-13 16:47 2.2M
20260413T12Z_MSC_GDPS_WindGust-Min_AGL-10m_LatLon0.15_PT114H.grib2 2026-04-13 16:47 2.2M
20260413T12Z_MSC_GDPS_WindGust_AGL-10m_LatLon0.15_PT114H.grib2 2026-04-13 16:47 2.2M
20260413T12Z_MSC_GDPS_WindSpeed_AGL-10m_LatLon0.15_PT114H.grib2 2026-04-13 16:47 1.1M
20260413T12Z_MSC_GDPS_WindSpeed_AGL-120m_LatLon0.15_PT114H.grib2 2026-04-13 16:47 1.2M
20260413T12Z_MSC_GDPS_WindSpeed_AGL-40m_LatLon0.15_PT114H.grib2 2026-04-13 16:47 1.2M
20260413T12Z_MSC_GDPS_WindSpeed_AGL-80m_LatLon0.15_PT114H.grib2 2026-04-13 16:47 1.2M
20260413T12Z_MSC_GDPS_WindSpeed_IsbL-0001_LatLon0.15_PT114H.grib2 2026-04-13 16:47 626K
20260413T12Z_MSC_GDPS_WindSpeed_IsbL-0005_LatLon0.15_PT114H.grib2 2026-04-13 16:47 683K
20260413T12Z_MSC_GDPS_WindSpeed_IsbL-0010_LatLon0.15_PT114H.grib2 2026-04-13 16:47 619K
20260413T12Z_MSC_GDPS_WindSpeed_IsbL-0020_LatLon0.15_PT114H.grib2 2026-04-13 16:47 854K
20260413T12Z_MSC_GDPS_WindSpeed_IsbL-0030_LatLon0.15_PT114H.grib2 2026-04-13 16:47 850K
20260413T12Z_MSC_GDPS_WindSpeed_IsbL-0050_LatLon0.15_PT114H.grib2 2026-04-13 16:47 1.0M
20260413T12Z_MSC_GDPS_WindSpeed_IsbL-0100_LatLon0.15_PT114H.grib2 2026-04-13 16:47 1.1M
20260413T12Z_MSC_GDPS_WindSpeed_IsbL-0150_LatLon0.15_PT114H.grib2 2026-04-13 16:47 932K
20260413T12Z_MSC_GDPS_WindSpeed_IsbL-0175_LatLon0.15_PT114H.grib2 2026-04-13 16:47 1.0M
20260413T12Z_MSC_GDPS_WindSpeed_IsbL-0200_LatLon0.15_PT114H.grib2 2026-04-13 16:47 1.0M
20260413T12Z_MSC_GDPS_WindSpeed_IsbL-0225_LatLon0.15_PT114H.grib2 2026-04-13 16:47 1.1M
20260413T12Z_MSC_GDPS_WindSpeed_IsbL-0250_LatLon0.15_PT114H.grib2 2026-04-13 16:47 1.1M
20260413T12Z_MSC_GDPS_WindSpeed_IsbL-0275_LatLon0.15_PT114H.grib2 2026-04-13 16:47 1.1M
20260413T12Z_MSC_GDPS_WindSpeed_IsbL-0300_LatLon0.15_PT114H.grib2 2026-04-13 16:47 1.1M
20260413T12Z_MSC_GDPS_WindSpeed_IsbL-0350_LatLon0.15_PT114H.grib2 2026-04-13 16:47 1.1M
20260413T12Z_MSC_GDPS_WindSpeed_IsbL-0400_LatLon0.15_PT114H.grib2 2026-04-13 16:47 1.1M
20260413T12Z_MSC_GDPS_WindSpeed_IsbL-0450_LatLon0.15_PT114H.grib2 2026-04-13 16:47 1.1M
20260413T12Z_MSC_GDPS_WindSpeed_IsbL-0500_LatLon0.15_PT114H.grib2 2026-04-13 16:47 1.1M
20260413T12Z_MSC_GDPS_WindSpeed_IsbL-0550_LatLon0.15_PT114H.grib2 2026-04-13 16:47 1.1M
20260413T12Z_MSC_GDPS_WindSpeed_IsbL-0600_LatLon0.15_PT114H.grib2 2026-04-13 16:47 1.4M
20260413T12Z_MSC_GDPS_WindSpeed_IsbL-0650_LatLon0.15_PT114H.grib2 2026-04-13 16:47 1.4M
20260413T12Z_MSC_GDPS_WindSpeed_IsbL-0700_LatLon0.15_PT114H.grib2 2026-04-13 16:47 1.5M
20260413T12Z_MSC_GDPS_WindSpeed_IsbL-0750_LatLon0.15_PT114H.grib2 2026-04-13 16:47 1.5M
20260413T12Z_MSC_GDPS_WindSpeed_IsbL-0800_LatLon0.15_PT114H.grib2 2026-04-13 16:47 1.6M
20260413T12Z_MSC_GDPS_WindSpeed_IsbL-0850_LatLon0.15_PT114H.grib2 2026-04-13 16:47 1.7M
20260413T12Z_MSC_GDPS_WindSpeed_IsbL-0875_LatLon0.15_PT114H.grib2 2026-04-13 16:47 1.8M
20260413T12Z_MSC_GDPS_WindSpeed_IsbL-0900_LatLon0.15_PT114H.grib2 2026-04-13 16:47 1.8M
20260413T12Z_MSC_GDPS_WindSpeed_IsbL-0925_LatLon0.15_PT114H.grib2 2026-04-13 16:47 1.9M
20260413T12Z_MSC_GDPS_WindSpeed_IsbL-0950_LatLon0.15_PT114H.grib2 2026-04-13 16:47 1.9M
20260413T12Z_MSC_GDPS_WindSpeed_IsbL-0970_LatLon0.15_PT114H.grib2 2026-04-13 16:47 1.9M
20260413T12Z_MSC_GDPS_WindSpeed_IsbL-0985_LatLon0.15_PT114H.grib2 2026-04-13 16:47 1.8M
20260413T12Z_MSC_GDPS_WindSpeed_IsbL-1000_LatLon0.15_PT114H.grib2 2026-04-13 16:47 1.8M
20260413T12Z_MSC_GDPS_WindSpeed_IsbL-1015_LatLon0.15_PT114H.grib2 2026-04-13 16:47 1.8M
20260413T12Z_MSC_GDPS_WindU_AGL-10m_LatLon0.15_PT114H.grib2 2026-04-13 16:47 1.6M
20260413T12Z_MSC_GDPS_WindU_AGL-120m_LatLon0.15_PT114H.grib2 2026-04-13 16:47 963K
20260413T12Z_MSC_GDPS_WindU_AGL-40m_LatLon0.15_PT114H.grib2 2026-04-13 16:47 962K
20260413T12Z_MSC_GDPS_WindU_AGL-80m_LatLon0.15_PT114H.grib2 2026-04-13 16:47 965K
20260413T12Z_MSC_GDPS_WindU_IsbL-0001_LatLon0.15_PT114H.grib2 2026-04-13 16:47 491K
20260413T12Z_MSC_GDPS_WindU_IsbL-0005_LatLon0.15_PT114H.grib2 2026-04-13 16:47 682K
20260413T12Z_MSC_GDPS_WindU_IsbL-0010_LatLon0.15_PT114H.grib2 2026-04-13 16:47 694K
20260413T12Z_MSC_GDPS_WindU_IsbL-0020_LatLon0.15_PT114H.grib2 2026-04-13 16:47 732K
20260413T12Z_MSC_GDPS_WindU_IsbL-0030_LatLon0.15_PT114H.grib2 2026-04-13 16:47 729K
20260413T12Z_MSC_GDPS_WindU_IsbL-0050_LatLon0.15_PT114H.grib2 2026-04-13 16:47 696K
20260413T12Z_MSC_GDPS_WindU_IsbL-0100_LatLon0.15_PT114H.grib2 2026-04-13 16:47 920K
20260413T12Z_MSC_GDPS_WindU_IsbL-0150_LatLon0.15_PT114H.grib2 2026-04-13 16:47 1.0M
20260413T12Z_MSC_GDPS_WindU_IsbL-0175_LatLon0.15_PT114H.grib2 2026-04-13 16:47 1.0M
20260413T12Z_MSC_GDPS_WindU_IsbL-0200_LatLon0.15_PT114H.grib2 2026-04-13 16:47 841K
20260413T12Z_MSC_GDPS_WindU_IsbL-0225_LatLon0.15_PT114H.grib2 2026-04-13 16:47 850K
20260413T12Z_MSC_GDPS_WindU_IsbL-0250_LatLon0.15_PT114H.grib2 2026-04-13 16:47 851K
20260413T12Z_MSC_GDPS_WindU_IsbL-0275_LatLon0.15_PT114H.grib2 2026-04-13 16:47 877K
20260413T12Z_MSC_GDPS_WindU_IsbL-0300_LatLon0.15_PT114H.grib2 2026-04-13 16:47 867K
20260413T12Z_MSC_GDPS_WindU_IsbL-0350_LatLon0.15_PT114H.grib2 2026-04-13 16:47 1.1M
20260413T12Z_MSC_GDPS_WindU_IsbL-0400_LatLon0.15_PT114H.grib2 2026-04-13 16:47 1.1M
20260413T12Z_MSC_GDPS_WindU_IsbL-0450_LatLon0.15_PT114H.grib2 2026-04-13 16:47 1.1M
20260413T12Z_MSC_GDPS_WindU_IsbL-0500_LatLon0.15_PT114H.grib2 2026-04-13 16:47 1.1M
20260413T12Z_MSC_GDPS_WindU_IsbL-0550_LatLon0.15_PT114H.grib2 2026-04-13 16:47 1.1M
20260413T12Z_MSC_GDPS_WindU_IsbL-0600_LatLon0.15_PT114H.grib2 2026-04-13 16:47 1.1M
20260413T12Z_MSC_GDPS_WindU_IsbL-0650_LatLon0.15_PT114H.grib2 2026-04-13 16:47 1.2M
20260413T12Z_MSC_GDPS_WindU_IsbL-0700_LatLon0.15_PT114H.grib2 2026-04-13 16:47 1.2M
20260413T12Z_MSC_GDPS_WindU_IsbL-0750_LatLon0.15_PT114H.grib2 2026-04-13 16:47 1.3M
20260413T12Z_MSC_GDPS_WindU_IsbL-0800_LatLon0.15_PT114H.grib2 2026-04-13 16:47 1.3M
20260413T12Z_MSC_GDPS_WindU_IsbL-0850_LatLon0.15_PT114H.grib2 2026-04-13 16:47 1.4M
20260413T12Z_MSC_GDPS_WindU_IsbL-0875_LatLon0.15_PT114H.grib2 2026-04-13 16:47 1.4M
20260413T12Z_MSC_GDPS_WindU_IsbL-0900_LatLon0.15_PT114H.grib2 2026-04-13 16:47 1.5M
20260413T12Z_MSC_GDPS_WindU_IsbL-0925_LatLon0.15_PT114H.grib2 2026-04-13 16:47 1.4M
20260413T12Z_MSC_GDPS_WindU_IsbL-0950_LatLon0.15_PT114H.grib2 2026-04-13 16:47 1.4M
20260413T12Z_MSC_GDPS_WindU_IsbL-0970_LatLon0.15_PT114H.grib2 2026-04-13 16:47 1.4M
20260413T12Z_MSC_GDPS_WindU_IsbL-0985_LatLon0.15_PT114H.grib2 2026-04-13 16:47 1.4M
20260413T12Z_MSC_GDPS_WindU_IsbL-1000_LatLon0.15_PT114H.grib2 2026-04-13 16:47 1.4M
20260413T12Z_MSC_GDPS_WindU_IsbL-1015_LatLon0.15_PT114H.grib2 2026-04-13 16:47 1.6M
20260413T12Z_MSC_GDPS_WindV_AGL-10m_LatLon0.15_PT114H.grib2 2026-04-13 16:47 1.6M
20260413T12Z_MSC_GDPS_WindV_AGL-120m_LatLon0.15_PT114H.grib2 2026-04-13 16:47 971K
20260413T12Z_MSC_GDPS_WindV_AGL-40m_LatLon0.15_PT114H.grib2 2026-04-13 16:47 966K
20260413T12Z_MSC_GDPS_WindV_AGL-80m_LatLon0.15_PT114H.grib2 2026-04-13 16:47 971K
20260413T12Z_MSC_GDPS_WindV_IsbL-0001_LatLon0.15_PT114H.grib2 2026-04-13 16:47 758K
20260413T12Z_MSC_GDPS_WindV_IsbL-0005_LatLon0.15_PT114H.grib2 2026-04-13 16:47 770K
20260413T12Z_MSC_GDPS_WindV_IsbL-0010_LatLon0.15_PT114H.grib2 2026-04-13 16:47 796K
20260413T12Z_MSC_GDPS_WindV_IsbL-0020_LatLon0.15_PT114H.grib2 2026-04-13 16:47 848K
20260413T12Z_MSC_GDPS_WindV_IsbL-0030_LatLon0.15_PT114H.grib2 2026-04-13 16:47 845K
20260413T12Z_MSC_GDPS_WindV_IsbL-0050_LatLon0.15_PT114H.grib2 2026-04-13 16:47 698K
20260413T12Z_MSC_GDPS_WindV_IsbL-0100_LatLon0.15_PT114H.grib2 2026-04-13 16:47 844K
20260413T12Z_MSC_GDPS_WindV_IsbL-0150_LatLon0.15_PT114H.grib2 2026-04-13 16:47 1.0M
20260413T12Z_MSC_GDPS_WindV_IsbL-0175_LatLon0.15_PT114H.grib2 2026-04-13 16:47 1.0M
20260413T12Z_MSC_GDPS_WindV_IsbL-0200_LatLon0.15_PT114H.grib2 2026-04-13 16:47 837K
20260413T12Z_MSC_GDPS_WindV_IsbL-0225_LatLon0.15_PT114H.grib2 2026-04-13 16:47 846K
20260413T12Z_MSC_GDPS_WindV_IsbL-0250_LatLon0.15_PT114H.grib2 2026-04-13 16:47 907K
20260413T12Z_MSC_GDPS_WindV_IsbL-0275_LatLon0.15_PT114H.grib2 2026-04-13 16:47 930K
20260413T12Z_MSC_GDPS_WindV_IsbL-0300_LatLon0.15_PT114H.grib2 2026-04-13 16:47 920K
20260413T12Z_MSC_GDPS_WindV_IsbL-0350_LatLon0.15_PT114H.grib2 2026-04-13 16:47 932K
20260413T12Z_MSC_GDPS_WindV_IsbL-0400_LatLon0.15_PT114H.grib2 2026-04-13 16:47 870K
20260413T12Z_MSC_GDPS_WindV_IsbL-0450_LatLon0.15_PT114H.grib2 2026-04-13 16:47 870K
20260413T12Z_MSC_GDPS_WindV_IsbL-0500_LatLon0.15_PT114H.grib2 2026-04-13 16:47 872K
20260413T12Z_MSC_GDPS_WindV_IsbL-0550_LatLon0.15_PT114H.grib2 2026-04-13 16:47 1.1M
20260413T12Z_MSC_GDPS_WindV_IsbL-0600_LatLon0.15_PT114H.grib2 2026-04-13 16:47 1.1M
20260413T12Z_MSC_GDPS_WindV_IsbL-0650_LatLon0.15_PT114H.grib2 2026-04-13 16:47 1.1M
20260413T12Z_MSC_GDPS_WindV_IsbL-0700_LatLon0.15_PT114H.grib2 2026-04-13 16:47 1.2M
20260413T12Z_MSC_GDPS_WindV_IsbL-0750_LatLon0.15_PT114H.grib2 2026-04-13 16:47 1.2M
20260413T12Z_MSC_GDPS_WindV_IsbL-0800_LatLon0.15_PT114H.grib2 2026-04-13 16:47 1.3M
20260413T12Z_MSC_GDPS_WindV_IsbL-0850_LatLon0.15_PT114H.grib2 2026-04-13 16:47 1.4M
20260413T12Z_MSC_GDPS_WindV_IsbL-0875_LatLon0.15_PT114H.grib2 2026-04-13 16:47 1.4M
20260413T12Z_MSC_GDPS_WindV_IsbL-0900_LatLon0.15_PT114H.grib2 2026-04-13 16:47 1.4M
20260413T12Z_MSC_GDPS_WindV_IsbL-0925_LatLon0.15_PT114H.grib2 2026-04-13 16:47 1.4M
20260413T12Z_MSC_GDPS_WindV_IsbL-0950_LatLon0.15_PT114H.grib2 2026-04-13 16:47 1.4M
20260413T12Z_MSC_GDPS_WindV_IsbL-0970_LatLon0.15_PT114H.grib2 2026-04-13 16:47 1.4M
20260413T12Z_MSC_GDPS_WindV_IsbL-0985_LatLon0.15_PT114H.grib2 2026-04-13 16:47 1.4M
20260413T12Z_MSC_GDPS_WindV_IsbL-1000_LatLon0.15_PT114H.grib2 2026-04-13 16:47 1.7M
20260413T12Z_MSC_GDPS_WindV_IsbL-1015_LatLon0.15_PT114H.grib2 2026-04-13 16:47 1.6M